Location: Unspecified
(35.6961°N, 0.0000°E)
Time: 01:56:52
(UTC+00:00)

Vanguard 3 - Pass Details

Date: 01 June 2019
Orbit: 508 x 3263 km, 33.3° (Epoch: 23 June)

Event Time Altitude Azimuth Distance (km) Brightness Sun altitude
Rises 02:00:04 0° 267° (W) 4,859 - -25.5°
Reaches altitude 10° 02:04:22 10° 249° (WSW) 4,340 - -25.0°
Maximum altitude 02:11:53 18° 212° (SSW) 4,389 - -24.1°
Drops below altitude 10° 02:21:35 10° 176° (S) 5,736 - -23.0°
Exits shadow 02:22:27 - 174° (S) 5,890 11.1 -22.9°
Sets 02:28:57 0° 161° (SSE) 7,077 11.6 -22.1°
